Regional Weather Roundup
Issued by NWS Albany, NY

Home | Current Version | Previous Version | Text Only | Print | Product List | Glossary On
Versions: 1 2 3 4 5 6 7 8 9 10 11 12 13 14 15 16 17 18 19 20 21 22 23 24 25 26 27
000
ASUS41 KALY 070810
RWRALY

NEW YORK STATE HOURLY WEATHER ROUNDUP
NATIONAL WEATHER SERVICE ALBANY NY
300 AM EST WED DEC 07 2016

NOTE: "FAIR" INDICATES FEW OR NO CLOUDS BELOW 12,000 FEET WITH NO
SIGNIFICANT WEATHER AND/OR NO OBSTRUCTIONS TO VISIBILITY.

NYZ032-033-038>043-046>054-057>066-NYZ062>081-082-084-070900-
EAST


CITY           SKY/WX    TMP DP  RH WIND       PRES   REMARKS
ALBANY         LGT SNOW  32  31  96 CALM      29.92R FOG
GLENS FALLS    LGT SNOW  33  29  85 CALM      29.91F FOG
POUGHKEEPSIE   MIX PCPN  32  32 100 N3        29.89F FOG
MONTGOMERY     LGT RAIN  34  32  92 N7        29.88F FOG     WCI  28
WHITE PLAINS   LGT RAIN  37  35  92 NE7       29.85R FOG     WCI  32
ISLIP          LGT RAIN  41  39  93 NE10      29.84R
NEW YORK CITY  LGT RAIN  43  40  89 NE12      29.86R FOG
CENTRAL PARK   LGT RAIN  40  38  93 NE6       29.89R FOG
$$

NYZ005>009-017-018-044>046-055-056-070900-
CENTRAL


CITY           SKY/WX    TMP DP  RH WIND       PRES   REMARKS
FULTON         LGT SNOW  34  33  96 VRB5      29.84R FOG     WCI  30
SYRACUSE       LGT SNOW  32  32 100 E9        29.85R FOG     WCI  24
ROME           LGT SNOW  32  32 100 E7        29.89S FOG     WCI  26
ELMIRA         CLOUDY    34  31  88 SW3       29.85R FOG
BINGHAMTON     LGT SNOW  31  31 100 S5        29.83R FOG     WCI  26
MONTICELLO     CLOUDY    32  30  93 CALM      29.87R
$$

NYZ026>034-041>043-087-070900-
NORTH


CITY           SKY/WX    TMP DP  RH WIND       PRES   REMARKS
WATERTOWN      CLOUDY    37  34  89 S8        29.81S WCI  31
FORT DRUM      NOT AVBL
OGDENSBURG     LGT SNOW  32  31  96 E5        29.84F WCI  27
MASSENA        CLOUDY    29  25  85 E7        29.88F WCI  22
SARANAC LAKE   LGT SNOW  27  24  89 CALM      29.81F VSB 1
PLATTSBURGH    LGT SNOW  30  27  88 CALM      29.91S FOG
$$

NYZ001>004-010>016-019>021-085-070900-
WEST


CITY           SKY/WX    TMP DP  RH WIND       PRES   REMARKS
NIAGARA FALLS  LGT RAIN  43  39  86 SW10      29.78R
BUFFALO        LGT RAIN  40  40 100 SW15      29.78R FOG     WCI  32
DUNKIRK        LGT RAIN  42  40  92 W14G24    29.81R
JAMESTOWN      CLOUDY    37  34  87 SW9       29.80R WCI  31
WELLSVILLE     CLOUDY    36  33  89 VRB6      29.81R FOG     WCI  31
ROCHESTER      DRIZZLE   37  35  92 S6        29.81R WCI  32
PENN YAN       CLOUDY    36  32  85 S9        29.83R WCI  29
$$

             KEY
       WCI = WIND CHILL INDEX
       VSB = VISIBILITY
       HX  = HEAT INDEX
$$




USA.gov is the U.S. government's official web portal to all federal, state and local government web resources and services.